Flag for Canada Weather past 2 weeks in Delta, British Columbia, Canada

Now
63 °F

Passing clouds.


Feels Like: 63 °F
Forecast: 59 / 77 °F
Wind: 3 mph from Southeast

Location: Vancouver International Air-Port

Current Time: Aug 27, 2014 at 8:31:13 AM

Latest Report: Aug 27, 2014 at 7:00 AM


Visibility: 25 mi

Pressure: 30.03 "Hg

Humidity: 88%

Dew point: 59 °F

Location of DeltaLocation

Historic Weather in Delta — Graph

°F

Delta temperature yesterday

Maximum temperature yesterday: 75 °F (at 2:00 PM)
Minimum temperature yesterday: 63 °F (at 2:00 AM)
Average temperature yesterday: 69 °F

Past Weeks' High & Low Weather Summary

 TemperatureHumidityPressure
High75 °F (Aug 15, 4:00 PM)100% (Aug 13, 10:00 AM)30.15 "Hg (Aug 13, 10:00 AM)
Low55 °F (Aug 23, 6:00 AM)57% (Aug 21, 6:00 PM)29.75 "Hg (Aug 19, 8:00 PM)
Average66 °F82%29.98 "Hg
* Reported Aug 12 7:00 AM — Aug 27 7:00 AM, Delta, Weather by CustomWeather, © 2014

Note: Actual official high and low records may vary slightly from our data, if they occured in-between our weather recording intervals... More about our weather records

Advertising

Delta weather history for previous 24 hours

 ConditionsComfort  
Time TempWeatherWind HumidityBarometerVisibility
7:00 AM
Aug 27
63 °FPassing clouds.3 mph88%30.03 "Hg25 mi
6:00 AM63 °FPassing clouds.6 mph83%30.01 "Hg20 mi
5:00 AM63 °FPassing clouds.5 mph83%30.00 "Hg15 mi
4:00 AM64 °FPassing clouds.5 mph88%30.00 "Hg15 mi
3:00 AM64 °FPassing clouds.3 mph88%29.99 "Hg20 mi
2:00 AM66 °FPassing clouds.3 mph88%29.98 "Hg15 mi
1:00 AM68 °FPassing clouds.3 mph78%29.98 "Hg20 mi
12:00 AM68 °FPassing clouds.2 mph88%29.97 "Hg20 mi
11:00 PM
Aug 26
68 °FPassing clouds.No wind83%29.97 "Hg20 mi
10:00 PM68 °FPassing clouds.No wind83%29.97 "Hg30 mi
9:00 PM68 °FScattered clouds.No wind83%29.97 "Hg30 mi
8:00 PM72 °FPartly sunny.2 mph73%29.97 "Hg30 mi
7:00 PM73 °FPartly sunny.2 mph74%29.97 "Hg30 mi
6:00 PM75 °FPartly sunny.3 mph69%29.98 "Hg30 mi
5:00 PM75 °FPartly sunny.6 mph61%29.99 "Hg20 mi
4:00 PM75 °FPartly sunny.7 mph65%30.01 "Hg15 mi
3:00 PM75 °FPassing clouds.7 mph65%30.02 "Hg15 mi
2:00 PM75 °FPassing clouds.7 mph69%30.03 "Hg15 mi
1:00 PM72 °FSunny.7 mph78%30.04 "Hg15 mi
12:00 PM72 °FSunny.8 mph78%30.05 "Hg15 mi
11:00 AM73 °FSunny.8 mph69%30.05 "Hg15 mi
10:00 AM72 °FSunny.3 mph65%30.06 "Hg15 mi
9:00 AM70 °FSunny.5 mph73%30.06 "Hg15 mi
8:00 AM66 °FSunny.5 mph83%30.05 "Hg15 mi
Weather by CustomWeather, © 2014

See weather overviewHow to use our weather pages